Regional Weather Roundup
Issued by NWS

Home | Current Version | Previous Version | Graphics & Text | Print | Product List | Glossary Off
Versions: 1 2 3 4 5 6 7 8 9 10 11 12 13 14 15 16 17 18 19 20 21 22 23 24 25 26 27 28 29 30 31 32 33 34 35 36 37 38 39 40 41 42 43 44 45 46 47 48 49 50

000
ASUS43 KMKX 220821
RWRWI

WISCONSIN REGIONAL WEATHER ROUNDUP
NATIONAL WEATHER SERVICE MILWAUKEE/SULLIVAN WI
300 AM CDT TUE MAY 22 2018

NOTE: "FAIR" INDICATES FEW OR NO CLOUDS BELOW 12,000 FEET WITH NO
SIGNIFICANT WEATHER AND/OR OBSTRUCTIONS TO VISIBILITY.

WIZ001-002-006>008-014>016-023>028-220900-
NORTHWEST WISCONSIN

CITY           SKY/WX    TMP DP  RH WIND       PRES   REMARKS
SUPERIOR ARPT  CLOUDY    51  40  65 CALM      30.01S
ASHLAND        MOCLDY    48  43  82 S3        30.01S
HAYWARD        CLOUDY    57  53  86 S3        30.03R
SIREN          CLOUDY    57  52  82 CALM      30.03R
CUMBERLAND     CLOUDY    54  52  94 CALM      30.03S FOG
RICE LAKE      CLOUDY    55  54  96 SE5       30.04S FOG
CHETEK         CLOUDY    55  54  99 CALM      30.04R FOG
LADYSMITH      CLOUDY    54  53  95 CALM      30.05S FOG
EAU CLAIRE     CLOUDY    54  54 100 E3        30.02R FOG
MENOMONIE      CLOUDY    56  55  97 CALM      30.03S FOG
NEW RICHMOND   CLOUDY    56  54  91 CALM      30.03S
OSCEOLA        CLOUDY    58  53  84 SE3       30.05R
$$

WIZ003>005-009-010-017-018-220900-
NORTH CENTRAL WISCONSIN

CITY           SKY/WX    TMP DP  RH WIND       PRES   REMARKS
MANITOWISH WTR CLOUDY    52  52 100 CALM      30.03S
ARBOR VITAE    CLOUDY    53  50  89 CALM      30.03S
WOODRUFF       CLOUDY    53  50  89 CALM      30.03S
RHINELANDER    CLOUDY    53  50  89 CALM      30.03F
EAGLE RIVER    CLOUDY    51  46  82 CALM      30.03S
LAND O LAKES   CLOUDY    52  47  82 CALM      30.04S
PHILLIPS       CLOUDY    52  52 100 CALM      30.03R
TOMAHAWK       CLOUDY    49  47  94 CALM      30.04S
MEDFORD        CLOUDY    50  49  98 SE3       30.02S FOG
MERRILL        CLOUDY    50  50 100 CALM      30.04S
$$

WIZ029-030-035-036-043>047-220900-
CENTRAL WISCONSIN

CITY           SKY/WX    TMP DP  RH WIND       PRES   REMARKS
WAUSAU         CLOUDY    50  49  96 E5        30.02S
MOSINEE        LGT RAIN  48  48 100 CALM      30.04S
MARSHFIELD     CLOUDY    51  51 100 E6        30.01S FOG
STEVENS POINT  CLOUDY    49  49 100 CALM      30.03S FOG
WAUPACA        CLOUDY    52  52  98 N3        30.02F FOG
WAUTOMA        CLOUDY    51  50  96 NE5       30.02F
WISC RAPIDS    LGT RAIN  52  50  93 CALM      30.03S FOG
CAMP DOUGLAS   CLOUDY    52  52 100 CALM      30.01S
$$

WIZ011>013-019>022-031-037>040-048>050-220900-
NORTHEAST WISCONSIN

CITY           SKY/WX    TMP DP  RH WIND       PRES   REMARKS
ANTIGO         DRIZZLE   47  47 100 CALM      30.03F
SHAWANO        CLOUDY    52  50  91 CALM      30.03S
OCONTO         CLOUDY    50  49  94 CALM      30.03R
STURGEON BAY   CLOUDY    49  48  97 CALM      30.03F
GREEN BAY      CLOUDY    51  49  92 N3        30.03S
MANITOWOC      CLOUDY    48  48 100 N5        30.03S FOG
APPLETON       CLOUDY    50  50 100 N5        30.00F
CLINTONVILLE   CLOUDY    51  49  92 N3        30.03S
OSHKOSH        CLOUDY    52  50  93 N6        30.00F
$$

WIZ032>034-041-042-053>061-220900-
SOUTHWEST WISCONSIN

CITY           SKY/WX    TMP DP  RH WIND       PRES   REMARKS
LA CROSSE      CLOUDY    58  56  93 E3        30.00S
SPARTA         CLOUDY    51  51  99 CALM      30.02S
VIROQUA        CLOUDY    55  55 100 E5        30.01S VSB 3/4
BOSCOBEL       CLOUDY    57  56  96 VRB3      30.00S FOG
PRAIRIE DU CHI CLOUDY    59  58  95 CALM      29.99F FOG
PLATTEVILLE    CLOUDY    59  59 100 W3        30.00S
$$

WIZ056-057-062-063-064-067-068-220900-
SOUTH CENTRAL WISCONSIN

CITY           SKY/WX    TMP DP  RH WIND       PRES   REMARKS
REEDSBURG      CLOUDY    52  52 100 NE3       30.00S FOG
BARABOO/DELLS  DRIZZLE   51  50  96 CALM      30.01R
LONE ROCK      CLOUDY    55  55 100 CALM      30.00S FOG
MINERAL POINT  FOG       57  57 100 CALM      30.00S VSB 1/2
MADISON        CLOUDY    52  51  97 NE5       29.99S FOG
MIDDLETON      CLOUDY    53  53 100 CALM      30.01S
WATERTOWN      CLOUDY    50  50 100 N3        30.00S FOG
MONROE         FOG       54  54 100 CALM      29.99R VSB 1/2
JANESVILLE     FOG       54  54 100 CALM      29.99R VSB 1/2
$$

WIZ051-052-058>065-066-070>072-220900-
SOUTHEAST WISCONSIN

CITY           SKY/WX    TMP DP  RH WIND       PRES   REMARKS
MILWAUKEE      FOG       49  48  97 N5        29.99S VSB 1/4
WAUKESHA       FOG       46  46 100 CALM      30.01R VSB 3/4
MILWAUKEE/TIMM FOG       48  45  87 CALM      30.01S VSB 1/2
RACINE         FOG       47  47 100 N8        30.01R VSB 1/4
BURLINGTON     CLOUDY    49  49  99 CALM      29.99S FOG
KENOSHA        FOG       49  48  97 N7        29.99S VSB 1
FOND DU LAC    CLOUDY    51  49  92 N3        30.00F
SHEBOYGAN      FOG       49  48  97 N3        30.01S VSB 1/2
WEST BEND      CLOUDY    48  48 100 CALM      30.00S FOG
JUNEAU         CLOUDY    49  49  98 CALM      30.01S
$$

LSZ147-162-220900-
LAKE SUPERIOR

STATION/POSITION TIME  TEMP    WIND        PRES    WAVE
                       AIR SEA DIR/SP/G            HT/PER
                 (UTC) (F)     (DEG/KT/KT) (MB)    (FT/S)
W MID LAKE BUOY  0750   38 36  210/  6/  6 1016.2R   0
DEVILS ISLAND    0800   46     210/  9/  9 1016.6R
SAXON HARBOR     0740   53     200/  4/  6 1015.6R
$$

LMZ867-665-643>646-220900-
LAKE MICHIGAN

STATION/POSITION TIME  TEMP    WIND        PRES    WAVE
                       AIR SEA DIR/SP/G            HT/PER
                 (UTC) (F)     (DEG/KT/KT) (MB)    (FT/S)
N MID LAKE BUOY  0800   45 37  320/  2/  6 1016.7
NORTHPORT PIER   0740   46      CALM  /  2 1016.9S
KEWAUNEE LAKESHO 0800           40/  4/  6   N/A
SHEBOYGAN LAKESH 0800   46      20/ 10/ 11 1016.4F
PORT WASHINGTON  0740   50     360/  5/  6 1016.6F
ATWATER BUOY     0737   47 47   10/  8/ 10 1015.9R
MILWAUKEE LAKESH 0800   47     360/  7/  8   N/A
KENOSHA   LAKESH 0800   48                 1015.6
$$

TC  - TEMPERATURE IN CELSIUS
VSB - VISIBILITY IN STATUTE MILES
WCI - WIND CHILL INDEX
HX  - HEAT INDEX




USA.gov is the U.S. government's official web portal to all federal, state and local government web resources and services.